Bismarck, ND

2:03 AM CDT on April 28, 2017 (GMT -0500)
Bismarck Municipal

Weather History for KBIS - October, 2012

Change the Weather History Date:

Saturday, October 6, 2012

  Actual Average Record
Temperature  
Mean Temperature 39 °F 49 °F  
Max Temperature 49 °F 63 °F 91 °F (1920)
Min Temperature 28 °F 36 °F 19 °F (1991)
Degree Days  
Heating Degree Days 26 16  
Month to date heating degree days 121 88  
Since 1 July heating degree days 353 374  
Cooling Degree Days 0 0  
Month to date cooling degree days 0 0  
Year to date cooling degree days 599 519  
Moisture  
Dew Point 22 °F    
Average Humidity 59    
Maximum Humidity 92    
Minimum Humidity 26    
Precipitation  
Precipitation T in 0.05 in 1.11 in (1994)
Month to date precipitation 0.50 0.27  
Year to date precipitation 12.68 15.67  
Snow  
Snow 0.00 in 0.00 in 4.70 in (1982)
Month to date snowfall T 0.1  
Since 1 July snowfall T 0.3  
Since 1 September snowfall T 0.3  
Snow Depth 0.00 in    
Sea Level Pressure  
Sea Level Pressure 30.39 in    
Wind  
Wind Speed 6 mph (WNW)    
Max Wind Speed 17 mph    
Max Gust Speed 22 mph    
Visibility 10 miles    
Events      
T = Trace of Precipitation, MM = Missing Value Source: NWS Daily Summary

Daily Weather History Graph

Daily Weather History Graph

Search for Another Location

Airport or City:

Trip Planner

Search our weather history database for the weather conditions in past years. The results will help you decide how hot, cold, wet, or windy it might be!

Date:

Astronomy

Oct. 06, 2012 Rise Set
Actual Time 7:49 AM CDT 7:11 PM CDT
Civil Twilight 7:18 AM CDT 7:42 PM CDT
Nautical Twilight 6:43 AM CDT 8:17 PM CDT
Astronomical Twilight 6:08 AM CDT 8:52 PM CDT
Moon 11:12 PM CDT (10/6) 2:02 PM CDT (10/6)
Length of Visible Light 12h 23m
Length of Day
11h 22m
Waning Gibbous, 65% of the Moon is Illuminated
Oct 6
Waning Gibbous
Oct 8
Last Quarter
Oct 15
New
Oct 21
First Quarter
Oct 29
Full

Hourly Weather History & Observations

Time (CDT) Temp. Windchill Dew Point Humidity Pressure Visibility Wind Dir Wind Speed Gust Speed Precip Events Conditions
12:52 AM 30.9 °F 25.2 °F 27.0 °F 85% 30.46 in 8.0 mi WNW 5.8 mph - 0.00 in   Overcast
1:52 AM 30.9 °F 25.2 °F 28.0 °F 89% 30.45 in 10.0 mi WNW 5.8 mph - 0.00 in   Overcast
2:52 AM 30.0 °F 24.1 °F 27.0 °F 88% 30.45 in 10.0 mi West 5.8 mph - N/A   Scattered Clouds
3:52 AM 30.9 °F 24.3 °F 27.0 °F 85% 30.45 in 10.0 mi West 6.9 mph - N/A   Overcast
4:52 AM 30.9 °F 25.2 °F 27.0 °F 85% 30.45 in 10.0 mi WNW 5.8 mph - N/A   Mostly Cloudy
5:52 AM 30.9 °F 25.2 °F 27.0 °F 85% 30.45 in 10.0 mi WNW 5.8 mph - N/A   Scattered Clouds
6:52 AM 30.0 °F 24.1 °F 27.0 °F 88% 30.46 in 10.0 mi West 5.8 mph - N/A   Partly Cloudy
7:52 AM 28.0 °F 24.2 °F 25.0 °F 88% 30.48 in 10.0 mi West 3.5 mph - N/A   Clear
8:52 AM 30.0 °F 24.1 °F 26.1 °F 85% 30.48 in 10.0 mi WNW 5.8 mph - N/A   Clear
9:52 AM 34.0 °F 28.8 °F 27.0 °F 75% 30.49 in 10.0 mi WNW 5.8 mph - N/A   Clear
10:52 AM 37.0 °F 32.4 °F 28.0 °F 70% 30.48 in 10.0 mi WNW 5.8 mph - N/A   Clear
11:52 AM 41.0 °F 35.2 °F 26.1 °F 55% 30.46 in 10.0 mi West 9.2 mph - N/A   Partly Cloudy
12:52 PM 43.0 °F 39.5 °F 24.1 °F 47% 30.44 in 10.0 mi WNW 5.8 mph - N/A   Partly Cloudy
1:52 PM 45.0 °F 40.6 °F 19.9 °F 37% 30.40 in 10.0 mi West 8.1 mph - N/A   Clear
2:52 PM 46.0 °F 44.8 °F 18.0 °F 33% 30.36 in 10.0 mi Variable 3.5 mph - N/A   Clear
3:52 PM 48.0 °F - 17.1 °F 29% 30.33 in 10.0 mi WNW 13.8 mph 19.6 mph N/A   Clear
4:52 PM 48.9 °F - 18.0 °F 29% 30.31 in 10.0 mi WNW 11.5 mph 20.7 mph N/A   Clear
5:52 PM 48.0 °F - 16.0 °F 28% 30.28 in 10.0 mi West 9.2 mph - N/A   Clear
6:52 PM 45.0 °F 40.1 °F 12.9 °F 27% 30.27 in 10.0 mi West 9.2 mph - N/A   Clear
7:52 PM 41.0 °F 38.0 °F 12.9 °F 32% 30.27 in 10.0 mi WSW 4.6 mph - N/A   Clear
8:52 PM 36.0 °F - 15.1 °F 43% 30.26 in 10.0 mi Calm Calm - N/A   Clear
9:52 PM 34.0 °F 29.8 °F 15.1 °F 46% 30.25 in 10.0 mi SW 4.6 mph - N/A   Clear
10:52 PM 32.0 °F - 16.0 °F 52% 30.23 in 10.0 mi Calm Calm - N/A   Clear
11:52 PM 32.0 °F - 17.1 °F 54% 30.20 in 10.0 mi Calm Calm - N/A   Clear